RULLOA Weather Reports


time (UTC)temp
C
wind
direction
speed
KPH
gust
KPH
rain 1hr
cm
rain 24hr
cm
rain mn
cm
humidity
%
barometer
mb
20260505120042 -17 0.0 0.0 0.00 0.00 0.00 1008.0
20260505114540 -17 0.0 0.0 0.00 0.00 0.00 1007.8
20260505113039 -17 0.0 0.0 0.00 0.00 0.00 1007.6
20260505111529 25 30 0.0 0.0 0.00 0.00 0.00 1 1007.5
20260505101527 25 65 0.0 0.0 0.00 0.00 0.00 1 1007.2
20260505100021 25 63 0.0 0.0 0.00 0.00 0.00 1 1007.2
20260505094501 25 68 0.0 0.0 0.00 0.00 0.00 1 1007.2
20260505093158 -17 65 0.0 0.0 0.00 0.00 0.00 1007.1
20260505084501 25 57 0.0 0.0 0.00 0.00 0.00 1 1007.0
20260505083105 25 47 0.0 0.0 0.00 0.00 0.00 1 1007.0
20260505081605 25 31 0.0 0.0 0.00 0.00 0.00 1 1007.2
20260505080058 25 31 0.0 0.0 0.00 0.00 0.00 1 1007.3
20260505074544 25 31 0.0 0.0 0.00 0.00 0.00 1 1007.6
20260505073041 26 31 0.0 0.0 0.00 0.00 0.00 1 1007.7
20260505071542 26 31 0.0 0.0 0.00 0.00 0.00 1 1007.9
20260505070031 26 31 0.0 0.0 0.00 0.00 0.00 1 1008.2
20260505064526 26 31 0.0 0.0 0.00 0.00 0.00 1 1008.4
20260505063022 26 31 0.0 0.0 0.00 0.00 0.00 1 1008.7
20260505061524 26 31 0.0 0.0 0.00 0.00 0.00 1 1009.0
20260505060013 26 31 0.0 0.0 0.00 0.00 0.00 1 1009.2
20260505054509 26 31 0.0 0.0 0.00 0.00 0.00 1 1009.1
20260505053007 26 31 0.0 0.0 0.00 0.00 0.00 1 1009.4
20260505051600 26 76 0.0 0.0 0.00 0.00 0.00 1 1009.4
20260505041542 26 71 0.0 0.0 0.00 0.00 0.00 1 1009.5
20260505040037 26 61 0.0 0.0 0.00 0.00 0.00 1 1009.4
20260505034533 26 61 0.0 0.0 0.00 0.00 0.00 1 1009.5
20260505033029 26 66 0.0 0.0 0.00 0.00 0.00 1 1009.3
20260505031531 27 44 0.0 0.0 0.00 0.00 0.00 1 1009.1
20260505030023 27 42 0.0 0.0 0.00 0.00 0.00 1 1009.1
20260505024520 27 52 0.0 0.0 0.00 0.00 0.00 1 1009.0
20260505023022 27 46 0.0 0.0 0.00 0.00 0.00 9 1009.1
20260505021519 27 59 0.0 0.0 0.00 0.00 0.00 1 1009.0
20260505020015 27 60 0.0 0.0 0.00 0.00 0.00 1 1008.7
20260505014511 28 28 0.0 0.0 0.00 0.00 0.00 1 1008.6
20260505013008 28 28 0.0 0.0 0.00 0.00 0.00 1 1008.2
20260505011503 28 37 0.0 0.0 0.00 0.00 0.00 1 1007.8
20260505010117 28 38 0.0 0.0 0.00 0.00 0.00 1 1007.7
20260505004554 28 38 0.0 0.0 0.00 0.00 0.00 1 1007.5
20260505003054 28 31 0.0 0.0 0.00 0.00 0.00 1 1007.3
20260505001545 29 17 0.0 0.0 0.00 0.00 0.00 1 1007.1
20260505000046 30 135 0.0 0.0 0.00 0.00 0.00 23 1006.8
20260504234536 30 135 0.0 0.0 0.00 0.00 0.00 26 1006.7
20260504233032 30 135 0.0 0.0 0.00 0.00 0.00 28 1006.5
20260504231527 30 136 0.0 0.0 0.00 0.00 0.00 36 1006.2
20260504230036 30 136 0.0 0.0 0.00 0.00 0.00 31 1006.0
20260504224520 30 136 0.0 0.0 0.00 0.00 0.00 22 1005.8
20260504223014 30 136 0.0 0.0 0.00 0.00 0.00 32 1005.7
20260504221520 30 130 0.0 0.0 0.00 0.00 0.00 36 1005.6
20260504220004 30 130 0.0 0.0 0.00 0.00 0.00 45 1005.5
20260504214608 30 130 0.0 0.0 0.00 0.00 0.00 36 1005.7
20260504213111 30 124 0.0 0.0 0.00 0.00 0.00 37 1005.6
20260504211551 30 107 0.0 0.0 0.00 0.00 0.00 40 1005.6
20260504210046 30 153 0.0 0.0 0.00 0.00 0.00 29 1005.7
20260504204542 30 140 0.0 0.0 0.00 0.00 0.00 37 1005.8
20260504203047 30 191 0.0 0.0 0.00 0.00 0.00 34 1005.9
20260504201533 30 135 0.0 0.0 0.00 0.00 0.00 34 1006.0
20260504200029 30 183 0.0 0.0 0.00 0.00 0.00 34 1006.2
20260504194530 30 146 0.0 0.0 0.00 0.00 0.00 39 1006.4
20260504193021 30 138 0.0 0.0 0.00 0.00 0.00 41 1006.7
20260504191522 30 136 0.0 0.0 0.00 0.00 0.00 35 1006.9
20260504190011 30 133 0.0 0.0 0.00 0.00 0.00 31 1007.1
20260504184506 30 111 0.0 0.0 0.00 0.00 0.00 24 1007.3
20260504183002 30 157 0.0 0.0 0.00 0.00 0.00 27 1007.6
20260504181600 30 126 0.0 0.0 0.00 0.00 0.00 31 1007.7
20260504180053 30 121 0.0 0.0 0.00 0.00 0.00 19 1007.9
20260504174548 30 107 0.0 0.0 0.00 0.00 0.00 25 1008.1
20260504173044 30 94 0.0 0.0 0.00 0.00 0.00 28 1008.3
20260504171539 30 121 0.0 0.0 0.00 0.00 0.00 22 1008.4
20260504150112 28 34 0.0 0.0 0.00 0.00 0.00 1 1009.7